Station NPDW3 - Northport Pier at Death's Door, WI Image indicating link to RSS feed of recent meteorological observations for station NPDW3


Conditions at NPDW3 as of
(2:00 pm CDT)
1900 GMT on 06/22/2024:
     

Click on the graph icon in the table below to see a time series plot of the last five days of that observation.

5-day plot - Wind Direction Wind Direction (WDIR):ESE ( 120 deg true )
5-day plot - Wind Speed Wind Speed (WSPD): 8.0 kts
5-day plot - Wind Gust Wind Gust (GST): 9.9 kts
5-day plot - Atmospheric Pressure Atmospheric Pressure (PRES):29.79 in
5-day plot - Pressure Tendency Pressure Tendency (PTDY):-0.09 in ( Falling Rapidly )
5-day plot - Air Temperature Air Temperature (ATMP): 62.6 °F
5-day plot - Wind Speed at 10 Meters Wind Speed at 10 meters (WSPD10M): 7.8 kts
5-day plot - Wind Speed at 20 Meters Wind Speed at 20 meters (WSPD20M): 7.8 kts
5-day plot -  Wind Speed, Wind Gust and Atmospheric Pressure Combined plot of Wind Speed, Gust, and Air Pressure
Previous observations
TIME
(CDT)
5-day plot - Wind Direction
WDIR
 
5-day plot - Wind Speed
WSPD
kts
5-day plot - Wind Gust
GST
kts
5-day plot - Wave Height
WVHT
ft
5-day plot - Dominant Wave Period
DPD
sec
5-day plot - Average Wave Period
APD
sec
5-day plot - Mean Wave Direction
MWD
 
5-day plot - Atmospheric Pressure
PRES
in
5-day plot - Pressure Tendency
PTDY
in
5-day plot - Air Temperature
ATMP
°F
5-day plot - Water Temperature
WTMP
°F
5-day plot - Dew Point
DEWP
°F
5-day plot - Salinity
SAL
psu
5-day plot - Visibility
VIS
nmi
5-day plot - Tide (above MLLW)
TIDE
ft
2024-06-22 01:50 pmESE 7.0 8.9----29.80- 62.6-----
2024-06-22 01:00 pmESE 4.1 5.1----29.82-0.10 63.0-----
2024-06-22 12:50 pmSSE 1.9 5.1----29.83- 62.6-----
2024-06-22 12:00 pm E 8.9 12.0----29.85-0.10 61.0-----
2024-06-22 11:50 am E 11.1 13.0----29.86- 60.8-----
2024-06-22 11:00 amENE 9.9 13.0----29.88-0.09 59.9-----
2024-06-22 10:50 amENE 9.9 13.0----29.89- 60.1-----
2024-06-22 10:00 amENE 9.9 15.9----29.92-0.06 59.9-----
2024-06-22 09:50 am NE 13.0 15.0----29.93- 59.7-----
2024-06-22 09:00 amENE 13.0 15.0----29.95-0.06 60.1-----
2024-06-22 08:50 amENE 9.9 14.0----29.95- 60.1-----
2024-06-22 08:00 am NE 8.9 13.0----29.97-0.05 60.6-----
2024-06-22 07:50 am NE 11.1 14.0----29.97- 60.3-----
2024-06-22 07:00 am NE 8.9 13.0----29.98-0.05 61.0-----
2024-06-22 06:50 amENE 8.9 12.0----29.98- 61.0-----
2024-06-22 06:00 am NE 9.9 13.0----30.01-0.05 60.1-----
2024-06-22 05:50 am NE 9.9 12.0----30.01- 59.9-----
2024-06-22 05:00 am NE 11.1 12.0----30.02-0.06 59.9-----
2024-06-22 04:50 am NE 9.9 12.0----30.03- 59.9-----
2024-06-22 04:00 am NE 9.9 13.0----30.03-0.08 60.4-----
2024-06-22 03:50 am NE 8.0 14.0----30.04- 60.3-----
2024-06-22 03:00 amENE 4.1 5.1----30.06-0.06 60.1-----
2024-06-22 02:50 am--------- 60.3-----
2024-06-22 02:00 am NE 8.0 9.9----30.08-0.03 60.3-----
2024-06-22 01:50 am NE 7.0 8.9----30.08- 60.3-----
2024-06-22 01:00 am N 6.0 8.9----30.11+0.01 61.2-----
2024-06-22 12:50 amNNE 5.1 8.9----30.11- 61.2-----
2024-06-22 12:00 amNNW 6.0 7.0----30.12+0.00 61.3-----
2024-06-21 11:50 pmNNW 5.1 8.0----30.12- 61.3-----
2024-06-21 11:00 pmNNE 5.1 6.0----30.11-0.04 60.8-----
2024-06-21 10:50 pmNNE 5.1 7.0----30.11- 60.8-----
2024-06-21 10:00 pmNNE 5.1 7.0----30.10-0.06 61.3-----
2024-06-21 09:50 pmNNE 5.1 7.0----30.11- 61.5-----
2024-06-21 09:00 pm N 6.0 8.0----30.12-0.05 61.7-----
2024-06-21 08:50 pmNNW 4.1 6.0----30.13- 61.9-----
2024-06-21 08:00 pm NW 5.1 6.0----30.15-0.02 62.1-----
2024-06-21 07:50 pm NW 5.1 5.1----30.15- 62.2-----
2024-06-21 07:00 pm- 0.0 0.0----30.16-0.01 63.1-----
2024-06-21 06:50 pm- 0.0 0.0----30.16- 63.0-----
2024-06-21 06:00 pm W 2.9 6.0----30.17+0.00 62.4-----
2024-06-21 05:50 pmWNW 4.1 6.0----30.17- 62.4-----
2024-06-21 05:00 pm NW 7.0 8.9----30.17-0.07 63.0-----
2024-06-21 04:50 pmNNW 6.0 8.0----30.16- 63.3-----
2024-06-21 04:00 pmNNW 4.1 5.1----30.17-0.07 64.4-----
2024-06-21 03:50 pmNNW 4.1 7.0----30.17- 64.9-----
2024-06-21 03:00 pm NE 2.9 5.1----30.17-0.06 64.4-----
2024-06-21 02:50 pm NE 1.9-----30.17- 62.2-----
2024-06-21 02:00 pm W 9.9 13.0----30.24+0.00 62.2-----
2024-06-21 01:50 pm NW 5.1 6.0----30.21- 62.2-----